sat.trackr.live / text

‹ back to catalog

STARLINK-31263

NORAD 58832 · 2024-017G

PAYLOAD ACTIVE UNKNOWN

§ Identity

Operator
Country
US
Launch date
2024-01-24
Launch site
AFWTR
Launch vehicle
Mass (kg)
RCS (m²)

Purposes: comms

External: N2YO · Heavens-Above · Gunter

§ Orbital elements

Epoch: 2026-09-20T12:37:37.985376Z

Period
93.85 min
Inclination
53.1628°
Eccentricity
0.0001593
Mean motion
15.34395047 rev/d
Perigee alt
461.6 km
Apogee alt
463.8 km
Semi-major
6,840.9 km
B*
5.1897e-5
RAAN
5.3361°
Arg perigee
76.0973°
Mean anomaly
284.0207°
Rev number
15,019

§ Raw data

STARLINK-312631 58832U 24017G   26263.52613409  .00001377  00000+0  51897-4 0  99902 58832  53.1628   5.3361 0001593  76.0973 284.0207 15.34395047150191

JSON: /api/v1/satellites/58832 · /tle

For live sub-satellite position, see the globe view (requires WebGL).

§ Visibility from observer

Set your observer location to see the next 7 days of passes ≥ 10°. The values pass through the URL so the page stays shareable.

No JS? Fill the form by hand. The geolocation button needs JavaScript.